FW7499 Weather Reports


time (UTC)temp
C
wind
direction
speed
KPH
gust
KPH
rain 1hr
cm
rain 24hr
cm
rain mn
cm
humidity
%
barometer
mb
20220811235037 31 203 1.6 8.0 0.00 0.03 0.03 47 1017.8
20220811234017 32 248 1.6 9.7 0.00 0.03 0.03 47 1018.0
20220811233057 32 248 1.6 8.0 0.00 0.03 0.03 46 1017.9
20220811232036 32 158 3.2 14.5 0.00 0.03 0.03 43 1017.8
20220811231016 32 203 3.2 11.3 0.00 0.03 0.03 43 1017.9
20220811230037 32 248 4.8 14.5 0.00 0.03 0.03 42 1017.8
20220811225016 32 225 3.2 11.3 0.00 0.03 0.03 43 1017.8
20220811224016 33 180 1.6 6.4 0.00 0.03 0.03 42 1017.9
20220811223117 33 270 3.2 11.3 0.00 0.03 0.03 46 1018.0
20220811222016 33 180 1.6 11.3 0.00 0.03 0.03 42 1018.0
20220811221016 32 180 3.2 9.7 0.00 0.03 0.03 43 1018.2
20220811220016 33 180 3.2 8.0 0.00 0.03 0.03 46 1018.2
20220811215036 33 180 3.2 9.7 0.00 0.03 0.03 44 1018.3
20220811214036 33 180 3.2 11.3 0.00 0.03 0.03 45 1018.5
20220811213016 33 180 3.2 9.7 0.00 0.03 0.03 43 1018.5
20220811212016 33 203 3.2 14.5 0.00 0.03 0.03 44 1018.7
20220811211016 33 315 3.2 12.9 0.00 0.03 0.03 44 1018.8
20220811210156 33 225 4.8 11.3 0.00 0.03 0.03 42 1018.8
20220811205016 33 203 1.6 6.4 0.00 0.03 0.03 45 1018.9
20220811204016 32 180 3.2 9.7 0.00 0.03 0.03 46 1018.9
20220811203057 33 270 3.2 11.3 0.00 0.03 0.03 45 1019.0
20220811202036 33 203 3.2 12.9 0.00 0.03 0.03 43 1019.1
20220811201016 33 180 3.2 11.3 0.00 0.03 0.03 47 1019.3
20220811200016 32 203 3.2 11.3 0.00 0.03 0.03 45 1019.4
20220811195016 32 203 3.2 12.9 0.00 0.03 0.03 46 1019.5
20220811194016 32 225 3.2 12.9 0.00 0.03 0.03 47 1019.7
20220811193016 32 68 3.2 11.3 0.00 0.03 0.03 47 1019.7
20220811192016 32 90 4.8 9.7 0.00 0.03 0.03 45 1019.7
20220811191016 32 68 3.2 9.7 0.00 0.03 0.03 46 1019.8
20220811190056 32 90 3.2 12.9 0.00 0.03 0.03 53 1020.2
20220811185036 32 203 3.2 11.3 0.00 0.03 0.03 47 1020.0
20220811184036 32 203 4.8 11.3 0.00 0.03 0.03 49 1020.0
20220811183036 32 180 3.2 9.7 0.00 0.03 0.03 50 1020.1
20220811182036 32 203 3.2 9.7 0.00 0.03 0.03 53 1020.3
20220811181016 31 248 3.2 9.7 0.00 0.03 0.03 54 1020.3
20220811180057 31 68 3.2 14.5 0.00 0.03 0.03 50 1020.5
20220811175036 31 203 4.8 12.9 0.00 0.03 0.03 55 1020.6
20220811174117 31 270 3.2 8.0 0.00 0.03 0.03 53 1020.9
20220811173016 30 225 3.2 11.3 0.00 0.03 0.03 53 1021.0
20220811172136 30 158 3.2 9.7 0.00 0.03 0.03 55 1021.1
20220811171016 30 248 3.2 8.0 0.00 0.03 0.03 55 1021.0
20220811170036 30 158 3.2 8.0 0.00 0.03 0.03 57 1021.2
20220811165036 30 180 3.2 8.0 0.00 0.03 0.03 54 1021.2
20220811164136 29 203 1.6 8.0 0.00 0.03 0.03 57 1021.1
20220811163016 29 248 3.2 8.0 0.00 0.03 0.03 56 1021.3
20220811162036 29 225 1.6 8.0 0.00 0.03 0.03 58 1021.4
20220811161016 28 180 3.2 8.0 0.00 0.03 0.03 58 1021.4
20220811160016 28 158 3.2 11.3 0.00 0.03 0.03 56 1021.5
20220811155036 28 113 3.2 8.0 0.00 0.03 0.03 57 1021.6
20220811154016 27 270 1.6 11.3 0.00 0.03 0.03 57 1021.6
20220811153116 27 90 1.6 6.4 0.00 0.03 0.03 60 1021.7
20220811152036 27 270 1.6 6.4 0.00 0.03 0.03 59 1021.7
20220811151036 27 225 1.6 4.8 0.00 0.03 0.03 59 1021.7
20220811150056 26 270 1.6 8.0 0.00 0.03 0.03 60 1021.7
20220811145016 26 158 1.6 4.8 0.00 0.03 0.03 65 1021.6
20220811144016 26 0 1.6 4.8 0.00 0.03 0.03 65 1021.6
20220811143136 25 225 1.6 8.0 0.00 0.03 0.03 68 1021.6
20220811142016 25 248 1.6 6.4 0.00 0.03 0.03 68 1021.6
20220811141016 25 248 1.6 4.8 0.00 0.03 0.03 69 1021.6
20220811140036 24 180 1.6 6.4 0.00 0.03 0.03 69 1021.7
20220811135056 23 0.0 3.2 0.03 0.03 0.03 74 1021.7
20220811134036 22 0.0 3.2 0.03 0.03 0.03 77 1021.6
20220811133036 22 0.0 3.2 0.03 0.03 0.03 79 1021.5
20220811132035 22 0.0 3.2 0.03 0.03 0.03 79 1021.5
20220811131056 21 0.0 1.6 0.03 0.03 0.03 85 1021.6
20220811130015 21 180 1.6 3.2 0.03 0.03 0.03 86 1021.5
20220811125035 20 0.0 1.6 0.00 0.00 0.00 89 1021.4
20220811124015 20 0.0 0.0 0.00 0.00 0.00 91 1021.2
20220811123035 19 0.0 0.0 0.00 0.00 0.00 92 1021.1
20220811122156 19 0.0 0.0 0.00 0.00 0.00 92 1021.1
20220811121035 18 0.0 0.0 0.00 0.00 0.00 92 1021.0
20220811120015 18 0.0 0.0 0.00 0.00 0.00 92 1020.9
20220811115015 18 0.0 0.0 0.00 0.00 0.00 92 1021.0
20220811114035 18 0.0 0.0 0.00 0.00 0.00 92 1021.0
20220811113015 18 0.0 0.0 0.00 0.00 0.00 92 1021.0
20220811112035 18 0.0 0.0 0.00 0.00 0.00 92 1020.9
20220811111035 18 0.0 0.0 0.00 0.00 0.00 92 1020.8
20220811110116 18 0.0 0.0 0.00 0.00 0.00 92 1020.8
20220811105055 18 0.0 0.0 0.00 0.00 0.00 92 1020.8
20220811104035 18 0.0 0.0 0.00 0.00 0.00 91 1020.8
20220811103015 19 0.0 0.0 0.00 0.00 0.00 91 1020.8
20220811102015 19 0.0 0.0 0.00 0.00 0.00 91 1020.8
20220811101035 19 0.0 0.0 0.00 0.00 0.00 90 1020.9
20220811100015 19 0.0 0.0 0.00 0.00 0.00 90 1020.8
20220811095015 19 0.0 0.0 0.00 0.00 0.00 90 1020.8
20220811094015 19 0.0 0.0 0.00 0.00 0.00 89 1020.7
20220811093015 20 0.0 0.0 0.00 0.00 0.00 89 1020.7
20220811092015 20 0.0 0.0 0.00 0.00 0.00 88 1020.8
20220811091015 20 0.0 0.0 0.00 0.00 0.00 88 1020.8
20220811090115 20 0.0 0.0 0.00 0.00 0.00 87 1020.8
20220811085035 20 0.0 0.0 0.00 0.00 0.00 87 1020.8
20220811084035 20 0.0 0.0 0.00 0.00 0.00 86 1020.8
20220811083020 20 0.0 0.0 0.00 0.00 0.00 86 1021.0
20220811082035 20 0.0 0.0 0.00 0.00 0.00 86 1021.0
20220811081035 20 0.0 0.0 0.00 0.00 0.00 86 1021.0
20220811080115 20 0.0 0.0 0.00 0.00 0.00 85 1021.0
20220811075015 21 0.0 0.0 0.00 0.00 0.00 85 1021.0
20220811074015 21 0.0 0.0 0.00 0.00 0.00 85 1020.8
20220811072115 21 0.0 0.0 0.00 0.00 0.00 84 1021.0
20220811071035 21 0.0 0.0 0.00 0.00 0.00 83 1020.9
20220811070055 21 0.0 0.0 0.00 0.00 0.00 83 1021.1
20220811065017 21 0.0 0.0 0.00 0.00 0.00 82 1021.1
20220811064117 22 0.0 0.0 0.00 0.00 0.00 81 1021.0
20220811063037 22 0.0 0.0 0.00 0.00 0.00 81 1021.0
20220811062057 22 0.0 0.0 0.00 0.00 0.00 80 1021.1
20220811061117 22 0.0 0.0 0.00 0.00 0.00 80 1021.2
20220811060017 22 0.0 0.0 0.00 0.00 0.00 79 1021.1
20220811055057 22 0.0 0.0 0.00 0.00 0.00 78 1021.1
20220811054037 22 0.0 0.0 0.00 0.00 0.00 78 1021.1
20220811053017 22 0.0 0.0 0.00 0.00 0.00 77 1021.1
20220811052017 23 0.0 0.0 0.00 0.00 0.00 77 1021.1
20220811051057 23 0.0 0.0 0.00 0.00 0.00 78 1021.0
20220811050137 23 0.0 0.0 0.00 0.00 0.00 77 1020.9
20220811045015 23 0.0 0.0 0.00 0.00 0.00 77 1020.9
20220811044035 23 0.0 0.0 0.00 0.00 0.00 76 1020.9
20220811043015 23 0.0 0.0 0.00 0.00 0.00 75 1020.9
20220811041115 24 0.0 0.0 0.00 0.00 0.00 74 1020.8
20220811040035 24 0.0 0.0 0.00 0.00 0.00 73 1020.8
20220811035035 25 0.0 0.0 0.00 0.00 0.00 72 1020.8
20220811034015 25 0.0 0.0 0.00 0.00 0.00 72 1020.8
20220811033015 25 0.0 1.6 0.00 0.00 0.00 71 1020.8
20220811032015 25 0.0 1.6 0.00 0.00 0.00 70 1020.7
20220811031015 25 0.0 1.6 0.00 0.00 0.00 69 1020.7
20220811030055 26 0.0 0.0 0.00 0.00 0.00 67 1020.4
20220811025016 26 0.0 3.2 0.00 0.00 0.00 66 1020.3
20220811024015 26 0.0 4.8 0.00 0.00 0.00 64 1020.3
20220811023156 27 0.0 3.2 0.00 0.00 0.00 63 1020.2
20220811022035 27 0.0 3.2 0.00 0.00 0.00 62 1020.1
20220811021015 27 0.0 1.6 0.00 0.00 0.00 61 1020.0
20220811020015 27 0.0 3.2 0.00 0.00 0.00 60 1019.8
20220811015015 28 203 1.6 4.8 0.00 0.00 0.00 59 1019.8
20220811014155 28 0.0 3.2 0.00 0.00 0.00 59 1019.6
20220811013017 28 0.0 3.2 0.00 0.00 0.00 60 1019.4
20220811012017 28 0.0 3.2 0.00 0.00 0.00 59 1019.4
20220811011117 28 0.0 4.8 0.00 0.00 0.00 60 1019.3
20220811010017 29 0.0 3.2 0.00 0.00 0.00 58 1019.3
20220811005037 29 0.0 4.8 0.00 0.00 0.00 56 1019.2
20220811004017 30 0.0 3.2 0.00 0.00 0.00 57 1019.2
20220811003017 30 0.0 4.8 0.00 0.00 0.00 56 1019.1
20220811002057 30 0.0 4.8 0.00 0.00 0.00 54 1019.1
20220811001037 30 248 1.6 4.8 0.00 0.00 0.00 54 1019.0
20220811000017 31 180 1.6 6.4 0.00 0.00 0.00 52 1019.0